QPF
0.00 0.00 0.00 0.00 0.00 0.00 0.00 0.00 0.00 0.00 0.00 0.01 0.01 0.01 0.01 0.01 0.01 0.00 0.00 0.00 0.00 0.00 0.00 0.00 0.00 0.00 0.00 0.00 0.00 0.00 0.00 0.00 0.00 0.00 0.00 0.00 0.00 0.00 0.00 0.01 0.07 0.07 0.04
0.00 0.00 0.00 0.00 0.00 0.00 0.00 0.00 0.00 0.00 0.00 0.00 0.01 0.01 0.01 0.01 0.01 0.00 0.00 0.00 0.00 0.00 0.00 0.00 0.00 0.01 0.00 0.00 0.00 0.00 0.00 0.00 0.00 0.00 0.00 0.00 0.00 0.00 0.00 0.02 0.09 0.06 0.02
0.00 0.00 0.00 0.00 0.00 0.00 0.00 0.00 0.00 0.00 0.00 0.00 0.00 0.00 0.01 0.01 0.00 0.00 0.00 0.00 0.00 0.00 0.01 0.01 0.01 0.01 0.01 0.00 0.00 0.00 0.00 0.00 0.00 0.00 0.02 0.03 0.00 0.00 0.00 0.02 0.03 0.02 0.01
0.00 0.00 0.00 0.00 0.00 0.00 0.00 0.00 0.00 0.00 0.00 0.00 0.00 0.00 0.00 0.00 0.00 0.00 0.00 0.00 0.00 0.01 0.01 0.01 0.01 0.01 0.00 0.00 0.00 0.00 0.00 0.00 0.00 0.01 0.11 0.06 0.01 0.00 0.00 0.00 0.01 0.01 0.01
0.00 0.00 0.00 0.00 0.00 0.00 0.00 0.00 0.00 0.00 0.00 0.00 0.00 0.00 0.00 0.00 0.00 0.00 0.00 0.00 0.00 0.00 0.01 0.01 0.01 0.01 0.00 0.00 0.00 0.00 0.00 0.00 0.00 0.02 0.07 0.06 0.08 0.02 0.00 0.00 0.01 0.01 0.01
0.00 0.00 0.00 0.00 0.00 0.00 0.00 0.00 0.00 0.00 0.00 0.00 0.00 0.00 0.00 0.00 0.00 0.00 0.00 0.00 0.00 0.01 0.01 0.01 0.00 0.00 0.00 0.00 0.00 0.00 0.00 0.00 0.00 0.02 0.03 0.03 0.07 0.02 0.00 0.00 0.00 0.00 0.00
0.00 0.00 0.00 0.00 0.00 0.00 0.00 0.00 0.00 0.00 0.00 0.00 0.00 0.00 0.00 0.00 0.00 0.00 0.01 0.00 0.01 0.01 0.02 0.01 0.01 0.00 0.00 0.00 0.00 0.00 0.00 0.00 0.00 0.01 0.01 0.02 0.05 0.01 0.00 0.00 0.00 0.00 0.00
0.00 0.00 0.00 0.00 0.00 0.00 0.00 0.00 0.00 0.00 0.00 0.00 0.00 0.00 0.00 0.00 0.00 0.01 0.01 0.01 0.01 0.01 0.01 0.01 0.01 0.00 0.00 0.00 0.00 0.00 0.00 0.00 0.00 0.00 0.00 0.01 0.01 0.00 0.00 0.00 0.00 0.00 0.00
0.00 0.00 0.00 0.00 0.00 0.00 0.00 0.00 0.00 0.00 0.00 0.00 0.00 0.00 0.00 0.00 0.00 0.00 0.01 0.01 0.01 0.01 0.01 0.01 0.01 0.00 0.00 0.00 0.00 0.00 0.00 0.00 0.00 0.00 0.00 0.00 0.00 0.00 0.00 0.01 0.01 0.00 0.00
0.00 0.00 0.00 0.00 0.00 0.00 0.00 0.00 0.00 0.00 0.00 0.00 0.00 0.00 0.00 0.00 0.00 0.00 0.00 0.00 0.01 0.01 0.01 0.01 0.01 0.00 0.00 0.00 0.00 0.00 0.00 0.00 0.00 0.00 0.00 0.00 0.00 0.00 0.00 0.01 0.02 0.02 0.01
0.00 0.00 0.00 0.00 0.00 0.00 0.01 0.02 0.02 0.01 0.01 0.01 0.01 0.00 0.00 0.00 0.00 0.00 0.00 0.00 0.00 0.00 0.01 0.01 0.01 0.01 0.01 0.00 0.00 0.00 0.00 0.00 0.00 0.00 0.00 0.00 0.00 0.00 0.00 0.01 0.03 0.05 0.06
0.00 0.00 0.00 0.00 0.00 0.00 0.01 0.05 0.08 0.07 0.09 0.09 0.09 0.09 0.05 0.04 0.02 0.01 0.01 0.03 0.02 0.01 0.01 0.00 0.01 0.02 0.01 0.01 0.03 0.03 0.00 0.00 0.00 0.00 0.00 0.00 0.00 0.00 0.00 0.00 0.01 0.03 0.06
0.00 0.00 0.00 0.00 0.00 0.01 0.01 0.04 0.07 0.07 0.15 0.19 0.23 0.27 0.25 0.18 0.09 0.04 0.04 0.07 0.05 0.04 0.02 0.02 0.02 0.01 0.02 0.03 0.08 0.12 0.03 0.01 0.00 0.00 0.01 0.01 0.00 0.00 0.00 0.00 0.00 0.01 0.02
0.01 0.01 0.00 0.00 0.00 0.01 0.02 0.04 0.03 0.03 0.07 0.10 0.19 0.28 0.31 0.28 0.22 0.17 0.14 0.12 0.12 0.10 0.09 0.08 0.08 0.07 0.07 0.07 0.07 0.09 0.10 0.05 0.01 0.00 0.02 0.04 0.02 0.01 0.00 0.00 0.01 0.01 0.02
0.04 0.03 0.02 0.01 0.01 0.02 0.03 0.04 0.04 0.03 0.04 0.06 0.10 0.17 0.24 0.26 0.25 0.28 0.24 0.21 0.16 0.17 0.21 0.17 0.12 0.15 0.17 0.16 0.13 0.12 0.10 0.08 0.05 0.04 0.10 0.15 0.07 0.03 0.01 0.01 0.01 0.01 0.02
0.06 0.06 0.02 0.01 0.02 0.03 0.03 0.03 0.03 0.03 0.03 0.03 0.05 0.09 0.16 0.20 0.24 0.29 0.29 0.28 0.24 0.22 0.21 0.24 0.21 0.26 0.25 0.23 0.14 0.12 0.12 0.14 0.11 0.08 0.12 0.18 0.12 0.05 0.03 0.02 0.01 0.02 0.02
0.04 0.04 0.02 0.02 0.01 0.02 0.02 0.02 0.02 0.02 0.01 0.02 0.04 0.06 0.10 0.15 0.20 0.25 0.29 0.32 0.32 0.33 0.32 0.29 0.28 0.35 0.30 0.22 0.20 0.21 0.22 0.22 0.21 0.21 0.17 0.20 0.24 0.14 0.06 0.03 0.02 0.02 0.03
0.02 0.02 0.02 0.02 0.02 0.01 0.01 0.01 0.01 0.01 0.02 0.02 0.02 0.04 0.07 0.11 0.16 0.21 0.26 0.33 0.36 0.38 0.39 0.37 0.32 0.33 0.32 0.30 0.27 0.23 0.28 0.29 0.30 0.34 0.31 0.27 0.27 0.23 0.21 0.11 0.06 0.03 0.04
0.03 0.03 0.01 0.01 0.01 0.01 0.01 0.01 0.01 0.02 0.02 0.02 0.03 0.05 0.08 0.13 0.18 0.23 0.27 0.33 0.36 0.38 0.39 0.37 0.39 0.38 0.35 0.33 0.27 0.24 0.25 0.25 0.26 0.29 0.36 0.30 0.30 0.26 0.28 0.23 0.10 0.05 0.04
0.01 0.01 0.01 0.01 0.01 0.00 0.00 0.01 0.01 0.02 0.02 0.02 0.04 0.05 0.06 0.11 0.15 0.19 0.23 0.26 0.28 0.30 0.32 0.33 0.37 0.38 0.34 0.32 0.24 0.22 0.23 0.20 0.21 0.22 0.22 0.20 0.22 0.22 0.23 0.24 0.16 0.05 0.03
0.01 0.01 0.01 0.01 0.00 0.00 0.00 0.00 0.01 0.02 0.02 0.03 0.03 0.04 0.07 0.09 0.10 0.13 0.15 0.20 0.21 0.22 0.26 0.28 0.30 0.32 0.30 0.28 0.26 0.21 0.17 0.14 0.14 0.13 0.11 0.11 0.12 0.14 0.14 0.15 0.11 0.07 0.03
0.00 0.00 0.00 0.00 0.00 0.00 0.00 0.00 0.00 0.01 0.02 0.03 0.04 0.05 0.05 0.06 0.07 0.09 0.13 0.18 0.21 0.21 0.21 0.24 0.25 0.24 0.22 0.22 0.21 0.16 0.12 0.11 0.10 0.07 0.07 0.07 0.05 0.07 0.09 0.07 0.03 0.03 0.02
0.00 0.00 0.00 0.00 0.00 0.00 0.00 0.00 0.00 0.00 0.01 0.01 0.02 0.02 0.03 0.04 0.06 0.09 0.13 0.18 0.21 0.22 0.21 0.22 0.21 0.20 0.16 0.15 0.15 0.12 0.08 0.06 0.06 0.05 0.05 0.04 0.03 0.03 0.03 0.03 0.01 0.01 0.00
0.00 0.00 0.00 0.00 0.00 0.00 0.00 0.00 0.00 0.00 0.00 0.00 0.00 0.00 0.01 0.01 0.02 0.05 0.09 0.15 0.18 0.20 0.20 0.17 0.18 0.21 0.19 0.13 0.13 0.11 0.06 0.05 0.06 0.06 0.04 0.02 0.02 0.02 0.01 0.01 0.01 0.00 0.00
0.00 0.00 0.00 0.00 0.00 0.00 0.00 0.00 0.00 0.00 0.00 0.00 0.00 0.00 0.00 0.00 0.00 0.01 0.02 0.07 0.14 0.20 0.26 0.24 0.23 0.21 0.19 0.14 0.12 0.13 0.09 0.04 0.03 0.03 0.05 0.04 0.02 0.01 0.00 0.00 0.00 0.00 0.00
0.00 0.00 0.00 0.00 0.00 0.00 0.00 0.00 0.00 0.00 0.01 0.00 0.00 0.00 0.00 0.00 0.00 0.00 0.00 0.01 0.04 0.11 0.19 0.25 0.28 0.27 0.23 0.19 0.11 0.11 0.17 0.09 0.02 0.01 0.01 0.03 0.04 0.01 0.00 0.00 0.00 0.00 0.00
MSLP
1007.33 1007.60 1008.00 1008.52 1009.09 1009.65 1010.13 1010.49 1010.72 1010.86 1010.95 1011.07 1011.26 1011.54 1011.92 1012.35 1012.80 1013.20 1013.53 1013.77 1013.93 1014.04 1014.12 1014.21 1014.32 1014.45 1014.59 1014.72 1014.83 1014.91 1014.95 1014.98 1015.01 1015.06 1015.14 1015.25 1015.40 1015.56 1015.73 1015.90 1016.06 1016.23 1016.42
1007.31 1007.62 1008.08 1008.64 1009.25 1009.83 1010.30 1010.64 1010.85 1010.95 1011.02 1011.13 1011.32 1011.63 1012.03 1012.49 1012.96 1013.38 1013.70 1013.93 1014.07 1014.15 1014.21 1014.28 1014.38 1014.51 1014.65 1014.78 1014.90 1014.98 1015.03 1015.08 1015.13 1015.21 1015.31 1015.46 1015.63 1015.81 1015.99 1016.17 1016.34 1016.51 1016.69
1007.22 1007.58 1008.09 1008.70 1009.36 1009.96 1010.45 1010.79 1010.99 1011.09 1011.15 1011.26 1011.45 1011.76 1012.16 1012.60 1013.04 1013.43 1013.71 1013.90 1014.02 1014.08 1014.15 1014.23 1014.35 1014.51 1014.67 1014.82 1014.94 1015.03 1015.09 1015.14 1015.20 1015.30 1015.44 1015.61 1015.81 1016.02 1016.23 1016.42 1016.59 1016.77 1016.95
1007.09 1007.51 1008.08 1008.75 1009.45 1010.08 1010.59 1010.94 1011.14 1011.25 1011.32 1011.44 1011.63 1011.93 1012.30 1012.70 1013.08 1013.40 1013.62 1013.76 1013.85 1013.92 1014.01 1014.14 1014.31 1014.51 1014.71 1014.89 1015.01 1015.10 1015.14 1015.19 1015.25 1015.36 1015.52 1015.72 1015.96 1016.20 1016.43 1016.64 1016.83 1017.00 1017.18
1006.95 1007.44 1008.08 1008.81 1009.54 1010.19 1010.71 1011.07 1011.28 1011.40 1011.49 1011.62 1011.82 1012.10 1012.44 1012.78 1013.09 1013.34 1013.49 1013.59 1013.66 1013.75 1013.88 1014.07 1014.31 1014.57 1014.82 1015.01 1015.13 1015.20 1015.21 1015.23 1015.27 1015.37 1015.54 1015.78 1016.05 1016.33 1016.59 1016.83 1017.03 1017.22 1017.40
1006.84 1007.41 1008.12 1008.89 1009.65 1010.31 1010.81 1011.16 1011.36 1011.49 1011.60 1011.75 1011.96 1012.24 1012.55 1012.85 1013.11 1013.28 1013.38 1013.44 1013.51 1013.62 1013.81 1014.07 1014.38 1014.71 1014.99 1015.19 1015.30 1015.32 1015.29 1015.25 1015.26 1015.34 1015.51 1015.76 1016.07 1016.39 1016.69 1016.96 1017.19 1017.39 1017.59
1006.79 1007.44 1008.21 1009.02 1009.77 1010.41 1010.88 1011.18 1011.37 1011.48 1011.60 1011.78 1012.01 1012.31 1012.62 1012.90 1013.11 1013.24 1013.30 1013.35 1013.42 1013.56 1013.80 1014.12 1014.50 1014.88 1015.19 1015.40 1015.47 1015.44 1015.35 1015.25 1015.19 1015.24 1015.40 1015.67 1016.00 1016.36 1016.70 1017.01 1017.28 1017.50 1017.71
1006.81 1007.54 1008.36 1009.18 1009.91 1010.49 1010.90 1011.14 1011.27 1011.36 1011.49 1011.68 1011.95 1012.27 1012.60 1012.88 1013.08 1013.19 1013.24 1013.27 1013.35 1013.52 1013.80 1014.18 1014.61 1015.02 1015.34 1015.54 1015.58 1015.49 1015.33 1015.16 1015.05 1015.06 1015.20 1015.46 1015.82 1016.21 1016.60 1016.96 1017.26 1017.51 1017.74
1006.92 1007.71 1008.56 1009.37 1010.06 1010.56 1010.87 1011.02 1011.08 1011.14 1011.25 1011.46 1011.77 1012.13 1012.49 1012.79 1013.00 1013.10 1013.14 1013.16 1013.24 1013.42 1013.72 1014.13 1014.58 1015.01 1015.34 1015.52 1015.53 1015.40 1015.19 1014.96 1014.80 1014.77 1014.89 1015.15 1015.52 1015.95 1016.38 1016.77 1017.11 1017.40 1017.65
1007.15 1007.97 1008.83 1009.60 1010.21 1010.62 1010.82 1010.87 1010.85 1010.85 1010.95 1011.17 1011.50 1011.90 1012.29 1012.61 1012.83 1012.93 1012.96 1012.96 1013.02 1013.19 1013.48 1013.89 1014.34 1014.77 1015.11 1015.28 1015.28 1015.13 1014.89 1014.63 1014.44 1014.39 1014.49 1014.75 1015.13 1015.57 1016.03 1016.46 1016.84 1017.16 1017.45
1007.50 1008.33 1009.16 1009.87 1010.39 1010.68 1010.77 1010.72 1010.62 1010.57 1010.64 1010.86 1011.20 1011.62 1012.03 1012.36 1012.57 1012.66 1012.66 1012.63 1012.65 1012.77 1013.03 1013.40 1013.84 1014.27 1014.61 1014.79 1014.81 1014.68 1014.45 1014.20 1014.00 1013.94 1014.03 1014.28 1014.66 1015.11 1015.59 1016.05 1016.46 1016.82 1017.14
1008.01 1008.79 1009.56 1010.18 1010.60 1010.78 1010.76 1010.62 1010.45 1010.35 1010.39 1010.59 1010.93 1011.34 1011.74 1012.06 1012.25 1012.30 1012.24 1012.15 1012.11 1012.17 1012.37 1012.69 1013.10 1013.52 1013.87 1014.09 1014.16 1014.08 1013.90 1013.69 1013.53 1013.47 1013.56 1013.79 1014.15 1014.60 1015.08 1015.56 1016.00 1016.39 1016.74
1008.66 1009.36 1010.02 1010.54 1010.84 1010.93 1010.82 1010.61 1010.39 1010.25 1010.26 1010.43 1010.74 1011.11 1011.47 1011.74 1011.87 1011.86 1011.74 1011.58 1011.46 1011.44 1011.56 1011.83 1012.20 1012.61 1012.98 1013.26 1013.40 1013.41 1013.31 1013.17 1013.05 1013.02 1013.10 1013.32 1013.65 1014.08 1014.54 1015.02 1015.48 1015.90 1016.29
1009.43 1010.00 1010.53 1010.93 1011.12 1011.12 1010.96 1010.71 1010.46 1010.30 1010.27 1010.40 1010.65 1010.96 1011.24 1011.43 1011.49 1011.40 1011.21 1010.97 1010.77 1010.67 1010.73 1010.93 1011.26 1011.67 1012.07 1012.40 1012.63 1012.74 1012.75 1012.69 1012.63 1012.62 1012.70 1012.88 1013.18 1013.56 1013.99 1014.46 1014.92 1015.37 1015.79
1010.25 1010.68 1011.06 1011.32 1011.42 1011.35 1011.16 1010.90 1010.65 1010.48 1010.42 1010.49 1010.66 1010.87 1011.05 1011.15 1011.11 1010.95 1010.69 1010.40 1010.14 1009.98 1009.97 1010.13 1010.42 1010.82 1011.24 1011.63 1011.94 1012.15 1012.25 1012.27 1012.26 1012.27 1012.34 1012.48 1012.72 1013.05 1013.44 1013.88 1014.34 1014.80 1015.26
1011.04 1011.31 1011.54 1011.68 1011.70 1011.60 1011.41 1011.17 1010.93 1010.75 1010.66 1010.67 1010.73 1010.83 1010.89 1010.88 1010.76 1010.54 1010.24 1009.91 1009.63 1009.45 1009.41 1009.53 1009.80 1010.18 1010.61 1011.03 1011.39 1011.67 1011.84 1011.92 1011.95 1011.96 1012.00 1012.09 1012.27 1012.53 1012.87 1013.28 1013.73 1014.20 1014.68
1011.74 1011.85 1011.94 1011.97 1011.93 1011.82 1011.66 1011.45 1011.25 1011.07 1010.94 1010.86 1010.82 1010.78 1010.72 1010.60 1010.41 1010.16 1009.85 1009.55 1009.29 1009.12 1009.08 1009.19 1009.43 1009.79 1010.20 1010.62 1011.00 1011.29 1011.50 1011.61 1011.64 1011.64 1011.64 1011.68 1011.78 1011.98 1012.26 1012.63 1013.07 1013.55 1014.05
1012.27 1012.25 1012.22 1012.18 1012.11 1012.01 1011.89 1011.73 1011.56 1011.39 1011.21 1011.04 1010.87 1010.69 1010.51 1010.30 1010.06 1009.80 1009.54 1009.30 1009.10 1008.99 1008.99 1009.10 1009.32 1009.63 1010.00 1010.38 1010.73 1011.01 1011.19 1011.29 1011.31 1011.27 1011.22 1011.20 1011.25 1011.38 1011.62 1011.95 1012.36 1012.84 1013.35
1012.60 1012.49 1012.38 1012.30 1012.22 1012.16 1012.08 1011.98 1011.85 1011.66 1011.43 1011.15 1010.86 1010.55 1010.24 1009.95 1009.69 1009.46 1009.27 1009.13 1009.04 1009.02 1009.07 1009.20 1009.40 1009.67 1009.96 1010.26 1010.54 1010.75 1010.89 1010.94 1010.92 1010.84 1010.74 1010.67 1010.66 1010.74 1010.93 1011.23 1011.63 1012.10 1012.62
1012.75 1012.59 1012.44 1012.34 1012.29 1012.26 1012.25 1012.20 1012.08 1011.88 1011.59 1011.21 1010.79 1010.35 1009.94 1009.59 1009.32 1009.14 1009.04 1009.02 1009.05 1009.14 1009.26 1009.41 1009.60 1009.80 1010.00 1010.21 1010.38 1010.50 1010.56 1010.55 1010.47 1010.34 1010.20 1010.09 1010.04 1010.08 1010.24 1010.52 1010.90 1011.36 1011.87
1012.74 1012.57 1012.43 1012.34 1012.32 1012.34 1012.38 1012.37 1012.27 1012.05 1011.70 1011.23 1010.70 1010.15 1009.66 1009.26 1008.98 1008.85 1008.85 1008.94 1009.10 1009.28 1009.47 1009.65 1009.80 1009.94 1010.05 1010.14 1010.21 1010.23 1010.20 1010.12 1009.99 1009.83 1009.66 1009.52 1009.44 1009.47 1009.60 1009.86 1010.22 1010.67 1011.16
1012.64 1012.49 1012.37 1012.31 1012.33 1012.40 1012.48 1012.51 1012.43 1012.20 1011.80 1011.26 1010.63 1010.00 1009.43 1008.99 1008.72 1008.63 1008.70 1008.89 1009.14 1009.40 1009.64 1009.83 1009.96 1010.03 1010.05 1010.04 1010.00 1009.93 1009.84 1009.70 1009.54 1009.35 1009.17 1009.02 1008.93 1008.94 1009.06 1009.29 1009.63 1010.06 1010.53
1012.49 1012.38 1012.30 1012.27 1012.33 1012.44 1012.56 1012.62 1012.55 1012.32 1011.89 1011.31 1010.64 1009.95 1009.33 1008.86 1008.58 1008.51 1008.62 1008.85 1009.16 1009.46 1009.72 1009.90 1010.00 1010.01 1009.97 1009.88 1009.76 1009.64 1009.49 1009.33 1009.16 1008.97 1008.79 1008.65 1008.56 1008.55 1008.65 1008.86 1009.18 1009.57 1010.02
1012.33 1012.27 1012.22 1012.22 1012.31 1012.45 1012.59 1012.67 1012.63 1012.41 1012.00 1011.41 1010.73 1010.02 1009.38 1008.89 1008.59 1008.51 1008.61 1008.85 1009.15 1009.45 1009.70 1009.86 1009.91 1009.88 1009.79 1009.66 1009.51 1009.36 1009.21 1009.05 1008.89 1008.73 1008.57 1008.43 1008.35 1008.33 1008.41 1008.59 1008.86 1009.22 1009.63
1012.19 1012.16 1012.13 1012.15 1012.24 1012.39 1012.55 1012.66 1012.65 1012.47 1012.09 1011.55 1010.89 1010.20 1009.56 1009.06 1008.74 1008.62 1008.68 1008.87 1009.12 1009.38 1009.58 1009.69 1009.71 1009.65 1009.53 1009.39 1009.25 1009.11 1008.99 1008.88 1008.76 1008.63 1008.50 1008.38 1008.30 1008.27 1008.31 1008.45 1008.67 1008.98 1009.35
1012.07 1012.06 1012.03 1012.05 1012.13 1012.26 1012.43 1012.55 1012.58 1012.45 1012.15 1011.67 1011.08 1010.43 1009.82 1009.32 1008.97 1008.80 1008.79 1008.90 1009.07 1009.24 1009.37 1009.43 1009.41 1009.34 1009.22 1009.10 1009.00 1008.91 1008.85 1008.79 1008.73 1008.66 1008.56 1008.46 1008.37 1008.32 1008.33 1008.41 1008.59 1008.84 1009.16
Thickness
5857 5849 5840 5837 5832 5828 5824 5820 5817 5813 5810 5807 5804 5801 5798 5795 5793 5790 5788 5786 5783 5781 5779 5776 5773 5770 5768 5766 5765 5764 5763 5762 5761 5761 5760 5759 5757 5756 5756 5755 5754 5753 5751
5858 5847 5839 5835 5831 5827 5823 5819 5816 5813 5809 5806 5803 5800 5797 5794 5791 5789 5786 5784 5782 5780 5777 5775 5773 5769 5767 5765 5763 5762 5761 5761 5760 5759 5759 5758 5756 5755 5755 5755 5755 5752 5750
5856 5845 5838 5833 5830 5826 5822 5818 5815 5812 5809 5806 5803 5800 5796 5794 5791 5788 5785 5783 5780 5778 5776 5774 5772 5769 5767 5764 5762 5761 5760 5760 5759 5758 5758 5758 5756 5754 5753 5753 5752 5751 5749
5854 5845 5838 5831 5828 5824 5820 5817 5813 5811 5808 5805 5802 5799 5796 5792 5790 5787 5784 5781 5779 5777 5775 5773 5771 5769 5766 5764 5762 5760 5759 5759 5759 5758 5759 5759 5757 5753 5752 5751 5751 5749 5748
5854 5845 5836 5830 5826 5822 5818 5815 5812 5809 5806 5803 5800 5797 5794 5791 5788 5785 5783 5780 5778 5775 5773 5771 5769 5767 5765 5764 5762 5760 5759 5759 5759 5759 5760 5759 5756 5752 5751 5750 5749 5748 5747
5851 5842 5832 5828 5824 5819 5816 5813 5809 5806 5803 5800 5798 5795 5792 5789 5786 5783 5781 5778 5775 5773 5771 5770 5768 5765 5764 5762 5761 5759 5759 5759 5759 5760 5761 5758 5755 5752 5750 5749 5748 5747 5746
5850 5840 5830 5824 5820 5816 5813 5810 5806 5803 5800 5797 5794 5791 5789 5786 5783 5780 5778 5776 5774 5771 5769 5768 5766 5764 5762 5760 5759 5758 5757 5758 5758 5762 5763 5760 5755 5751 5749 5748 5747 5746 5745
5849 5837 5826 5820 5816 5813 5809 5806 5802 5799 5796 5793 5790 5787 5784 5782 5779 5777 5774 5772 5770 5769 5767 5765 5764 5762 5760 5758 5757 5756 5756 5756 5759 5763 5764 5761 5756 5752 5749 5747 5746 5745 5744
5848 5833 5823 5817 5812 5808 5805 5802 5799 5796 5792 5789 5786 5783 5780 5777 5775 5773 5770 5768 5766 5765 5763 5762 5760 5759 5758 5756 5755 5754 5753 5754 5755 5760 5764 5762 5757 5754 5750 5747 5745 5744 5744
5842 5833 5824 5818 5812 5807 5803 5799 5796 5792 5789 5785 5782 5779 5776 5773 5771 5769 5767 5765 5763 5761 5759 5758 5757 5756 5755 5754 5753 5751 5751 5751 5753 5757 5762 5762 5758 5755 5751 5748 5745 5744 5743
5833 5830 5826 5821 5813 5809 5804 5799 5792 5788 5784 5780 5777 5774 5771 5769 5768 5766 5765 5763 5760 5758 5756 5754 5753 5752 5752 5751 5751 5749 5748 5749 5752 5755 5760 5762 5759 5756 5753 5749 5746 5744 5743
5821 5821 5820 5815 5810 5807 5805 5798 5791 5787 5784 5778 5776 5772 5768 5765 5765 5766 5764 5761 5758 5755 5753 5751 5749 5749 5748 5750 5749 5748 5748 5748 5750 5756 5759 5760 5758 5756 5753 5750 5747 5744 5743
5814 5811 5809 5806 5802 5798 5795 5792 5789 5787 5784 5779 5775 5771 5767 5764 5761 5761 5762 5759 5755 5751 5749 5749 5746 5746 5747 5749 5752 5751 5749 5750 5751 5754 5759 5759 5757 5755 5752 5750 5747 5744 5743
5801 5798 5797 5796 5793 5789 5786 5784 5783 5782 5778 5775 5771 5767 5763 5760 5758 5756 5755 5754 5752 5749 5747 5747 5746 5745 5746 5749 5751 5752 5751 5750 5752 5754 5756 5757 5755 5753 5751 5749 5746 5744 5742
5787 5786 5786 5785 5782 5779 5776 5774 5773 5771 5770 5769 5765 5762 5758 5755 5753 5752 5751 5750 5748 5745 5744 5742 5743 5744 5744 5746 5749 5751 5751 5750 5751 5752 5752 5752 5751 5750 5749 5748 5746 5744 5742
5775 5775 5776 5775 5773 5770 5767 5765 5764 5764 5763 5761 5759 5755 5752 5750 5748 5747 5746 5744 5744 5742 5740 5739 5737 5738 5739 5741 5744 5747 5749 5749 5750 5749 5747 5747 5747 5746 5747 5746 5745 5743 5741
5766 5766 5765 5766 5764 5760 5758 5757 5757 5756 5755 5753 5751 5748 5745 5744 5743 5741 5740 5739 5739 5737 5735 5734 5733 5732 5732 5735 5738 5741 5743 5745 5746 5746 5745 5745 5744 5744 5745 5745 5745 5743 5742
5758 5757 5756 5756 5753 5751 5750 5748 5748 5748 5746 5744 5743 5740 5738 5737 5735 5735 5734 5734 5733 5731 5729 5727 5727 5726 5726 5728 5731 5734 5737 5740 5741 5742 5741 5742 5742 5742 5742 5744 5744 5744 5742
5751 5749 5747 5746 5743 5741 5741 5740 5740 5739 5738 5737 5736 5733 5731 5729 5729 5728 5729 5728 5726 5725 5722 5721 5721 5721 5720 5722 5724 5728 5731 5734 5737 5738 5739 5739 5739 5740 5741 5742 5744 5744 5743
5746 5743 5740 5738 5735 5733 5732 5731 5730 5730 5730 5729 5729 5727 5725 5723 5722 5722 5722 5722 5720 5718 5716 5714 5714 5716 5716 5717 5718 5724 5728 5731 5733 5734 5736 5738 5738 5739 5740 5741 5743 5744 5743
5740 5737 5734 5730 5728 5724 5721 5718 5718 5719 5720 5720 5721 5721 5719 5717 5716 5715 5715 5715 5713 5711 5710 5709 5709 5709 5710 5712 5710 5713 5720 5727 5730 5732 5735 5736 5738 5740 5742 5743 5744 5743 5743
5734 5730 5728 5723 5719 5716 5712 5710 5712 5712 5712 5713 5714 5712 5711 5710 5709 5708 5707 5707 5706 5705 5704 5703 5702 5702 5703 5706 5704 5703 5706 5713 5722 5731 5732 5733 5736 5740 5743 5745 5745 5743 5744
5727 5723 5720 5715 5711 5706 5703 5702 5701 5700 5701 5701 5701 5701 5702 5701 5700 5700 5700 5700 5699 5699 5698 5697 5697 5695 5695 5698 5701 5700 5699 5702 5714 5725 5730 5733 5735 5738 5741 5745 5746 5745 5745
5720 5717 5712 5707 5703 5698 5693 5689 5685 5683 5684 5685 5687 5689 5690 5690 5691 5692 5692 5692 5691 5691 5691 5692 5693 5692 5690 5689 5693 5698 5701 5703 5702 5709 5719 5727 5731 5733 5736 5741 5744 5745 5745
5715 5710 5705 5701 5696 5691 5685 5680 5676 5673 5672 5673 5674 5675 5678 5680 5682 5684 5684 5683 5683 5683 5684 5685 5686 5686 5685 5684 5686 5688 5691 5697 5701 5700 5702 5711 5719 5726 5731 5736 5740 5742 5743
5710 5704 5699 5693 5688 5683 5678 5673 5668 5664 5662 5661 5662 5664 5668 5671 5673 5674 5674 5674 5674 5674 5675 5676 5678 5679 5679 5679 5681 5683 5683 5684 5691 5696 5697 5702 5707 5717 5725 5730 5733 5736 5738